Location: Berlin
(52.5171°N, 13.3759°E)
Time: 08:44:06
(UTC+02:00)

ISS - Pass Details

Date: 11 February 2018
Orbit: 402 x 406 km, 51.6° (Epoch: 21 June)

Event Time Altitude Azimuth Distance (km) Brightness Sun altitude
Rises 17:40:51 0° 281° (W) 2,322 1.3 -5.1°
Reaches altitude 10° 17:43:03 10° 271° (W) 1,460 0.5 -5.4°
Maximum altitude 17:46:00 32° 206° (SSW) 713 -2.1 -5.8°
Drops below altitude 10° 17:48:58 10° 141° (SE) 1,455 -1.2 -6.2°
Enters shadow 17:52:01 -3° 129° (SE) 2,663 0.0 -6.7°
